Weather History for KIND - July, 2013

Change the Weather History Date:

Wednesday, July 10, 2013

  Actual Average Record
Temperature  
Mean Temperature 77 °F 76 °F  
Max Temperature 85 °F 85 °F 105 °F (1936)
Min Temperature 69 °F 66 °F 50 °F (1963)
Degree Days  
Heating Degree Days 0 0  
Month to date heating degree days 0 0  
Since 1 June heating degree days 9 16  
Since 1 July heating degree days 0 0  
Cooling Degree Days 12 11  
Month to date cooling degree days 85 107  
Year to date cooling degree days 440 417  
Since 1 June cooling degree days 311 333  
Growing Degree Days 26 (Base 50)    
Moisture  
Dew Point 70 °F    
Average Humidity 77    
Maximum Humidity 87    
Minimum Humidity 67    
Precipitation  
Precipitation 0.05 in 0.16 in 1.52 in (1872)
Month to date precipitation 1.24 1.57  
Year to date precipitation 26.73 23.22  
Snow  
Snow 0.00 in 0.00 in 0.00 in ()
Month to date snowfall 0.0 0.0  
Since 1 June snowfall 0.0 0.0  
Since 1 July snowfall 0.0 0.0  
Snow Depth 0.00 in    
Sea Level Pressure  
Sea Level Pressure 29.91 in    
Wind  
Wind Speed 10 mph (SW)    
Max Wind Speed 24 mph    
Max Gust Speed 31 mph    
Visibility 10 miles    
Events Rain , Thunderstorm    
T = Trace of Precipitation, MM = Missing Value Source: NWS Daily Summary

Daily Weather History Graph

Daily Weather History Graph

Search for Another Location

Airport or City:

Trip Planner

Search our weather history database for the weather conditions in past years. The results will help you decide how hot, cold, wet, or windy it might be!

Date:

Astronomy

Jul. 10, 2013 Rise Set
Actual Time 6:26 AM EDT 9:14 PM EDT
Civil Twilight 5:54 AM EDT 9:46 PM EDT
Nautical Twilight 5:14 AM EDT 10:26 PM EDT
Astronomical Twilight 4:28 AM EDT 11:12 PM EDT
Moon 8:46 AM EDT (7/10) 10:24 PM EDT (7/10)
Length of Visible Light 15h 51m
Length of Day
14h 48m
Waxing Crescent, 5% of the Moon is Illuminated
Jul 10
Waxing Crescent
Jul 15
First Quarter
Jul 22
Full
Jul 29
Last Quarter
Aug 6
New

Hourly Weather History & Observations

Time (EDT) Temp. Heat Index Dew Point Humidity Pressure Visibility Wind Dir Wind Speed Gust Speed Precip Events Conditions
12:54 AM 80.1 °F 84.2 °F 73.0 °F 79% 29.95 in 10.0 mi South 8.1 mph - N/A   Overcast
1:54 AM 79.0 °F - 72.0 °F 79% 29.94 in 10.0 mi SSW 5.8 mph - N/A   Overcast
2:54 AM 77.0 °F - 72.0 °F 84% 29.93 in 10.0 mi SW 5.8 mph - N/A   Scattered Clouds
3:54 AM 75.9 °F - 72.0 °F 87% 29.93 in 10.0 mi SW 5.8 mph - N/A   Mostly Cloudy
4:54 AM 77.0 °F - 72.0 °F 84% 29.92 in 10.0 mi SSW 11.5 mph - N/A   Mostly Cloudy
5:54 AM 75.9 °F - 72.0 °F 87% 29.91 in 10.0 mi SSW 6.9 mph - N/A   Mostly Cloudy
6:54 AM 75.9 °F - 72.0 °F 87% 29.91 in 10.0 mi SSW 8.1 mph - N/A   Mostly Cloudy
7:54 AM 78.1 °F - 72.0 °F 81% 29.89 in 10.0 mi SSW 9.2 mph - N/A   Scattered Clouds
8:54 AM 82.0 °F 87.9 °F 73.9 °F 76% 29.91 in 10.0 mi SW 11.5 mph - N/A   Mostly Cloudy
9:54 AM 82.9 °F 89.4 °F 73.9 °F 74% 29.90 in 10.0 mi SW 11.5 mph - N/A   Scattered Clouds
10:54 AM 82.9 °F 89.4 °F 73.9 °F 74% 29.86 in 10.0 mi SSW 9.2 mph - N/A   Mostly Cloudy
11:54 AM 82.0 °F 88.6 °F 75.0 °F 79% 29.89 in 10.0 mi SW 10.4 mph - N/A Thunderstorm Thunderstorm
12:54 PM 79.0 °F - 71.1 °F 77% 29.96 in 10.0 mi West 23.0 mph 29.9 mph 0.00 in Thunderstorm Thunderstorm
1:54 PM 71.1 °F - 64.0 °F 78% 29.95 in 8.0 mi West 19.6 mph 27.6 mph 0.00 in Rain , Thunderstorm Light Thunderstorms and Rain
2:24 PM 69.8 °F - 64.4 °F 83% 29.95 in 8.0 mi WNW 15.0 mph - 0.04 in Rain Light Rain
2:54 PM 72.0 °F - 64.9 °F 78% 29.89 in 10.0 mi Calm Calm - 0.05 in Rain Light Rain
3:54 PM 75.9 °F - 66.9 °F 74% 29.84 in 10.0 mi North 9.2 mph - 0.00 in   Mostly Cloudy
4:54 PM 80.1 °F 82.7 °F 68.0 °F 67% 29.85 in 10.0 mi West 6.9 mph - N/A   Mostly Cloudy
5:54 PM 80.1 °F 82.7 °F 68.0 °F 67% 29.85 in 10.0 mi SSW 6.9 mph - N/A   Mostly Cloudy
6:54 PM 81.0 °F 84.1 °F 69.1 °F 67% 29.85 in 10.0 mi SW 8.1 mph - N/A   Mostly Cloudy
7:54 PM 79.0 °F - 68.0 °F 69% 29.88 in 10.0 mi SW 5.8 mph - N/A   Mostly Cloudy
8:35 PM 77.0 °F - 69.8 °F 78% 29.91 in 10.0 mi SW 6.9 mph - N/A   Mostly Cloudy
8:54 PM 78.1 °F - 69.1 °F 74% 29.89 in 10.0 mi SW 10.4 mph - N/A   Mostly Cloudy
9:25 PM 77.0 °F - 69.8 °F 78% 29.92 in 10.0 mi WSW 6.9 mph - N/A   Mostly Cloudy
9:54 PM 75.9 °F - 69.1 °F 79% 29.90 in 10.0 mi SSW 4.6 mph - N/A   Mostly Cloudy
10:31 PM 77.0 °F - 69.8 °F 78% 29.94 in 3.0 mi NNW 6.9 mph - 0.00 in Rain Heavy Rain
10:54 PM 77.0 °F - 69.1 °F 76% 29.92 in 10.0 mi NNE 13.8 mph - 0.00 in Rain Light Rain
11:03 PM 77.0 °F - 69.8 °F 78% 29.94 in 10.0 mi NNE 11.5 mph - 0.00 in   Overcast
11:54 PM 75.0 °F - 63.0 °F 66% 29.94 in 10.0 mi North 16.1 mph - 0.00 in   Overcast